Location: Del Amo
(33.8464°N, 118.2104°W)
Time: 15:11:01
(UTC+00:00)

Tiros 1 despin weight - Pass Details

Date: 14 September 2024
Orbit: 573 x 615 km, 48.2° (Epoch: 04 October)

Event Time Altitude Azimuth Distance (km) Brightness Sun altitude
Exits shadow 11:41:13 34° 336° (NNW) 1,020 ? -24.0°
Drops below altitude 10° 11:45:14 10° 37° (NE) 1,983 ? -23.2°
Sets 11:47:43 0° 47° (NE) 2,892 ? -22.7°
